HYLAS 1

Last updated on Tue Oct 08 2024 00:02:38 GMT+0000 (Coordinated Universal Time)

1 37237U 10065A 24281.54793700 -.00000110 00000+0 00000+0 0 9997 2 37237 4.0594 80.5115 0002065 134.4839 157.6848 1.00272414 696
UTC large
Height (km)
Speed (km/s)
/
Latitude / Longitude
Inclination (degrees)
Orbital Period (minutes)
Azimuth
Elevation
Range (km)
Doppler Factor

Next 0 passes for location: London (51.5072 / 0.1276)

Sorry there are no passes over London.